Preview of NWS' New Version of Forecast
This preview is not operational and should not be used for support decisions.

Regional Weather Roundup (RWR)

Issued by National Weather Service (NWS)

                            
000
ASUS46 KPQR 200210
RWROR 

OREGON REGIONAL WEATHER ROUNDUP
NATIONAL WEATHER SERVICE PORTLAND OR
700 PM PDT FRI APR 19 2019

NOTE: "FAIR" INDICATES FEW OR NO CLOUDS BELOW 12,000 FEET WITH
NO SIGNIFICANT WEATHER AND/OR OBSTRUCTIONS TO VISIBILITY.

ORZ001>013-200300-
NORTHWEST OREGON

  
CITY           SKY/WX    TMP DP  RH WIND       PRES   REMARKS
ASTORIA        CLOUDY    52  48  86 NW8       29.98F                  
TILLAMOOK      DRIZZLE   54  52  94 NW10      29.98F                  
NEWPORT        CLOUDY    52  52 100 N7        29.99F                  
PORTLAND       LGT RAIN  56  51  84 NW10      29.95S                  
VANCOUVER WA   LGT RAIN  55  52  89 NW8       29.95S                  
SCAPPOOSE      LGT RAIN  57  51  80 N13G20    29.95S                  
HILLSBORO      LGT RAIN  54  51  90 NW9       29.94S                  
AURORA         LGT RAIN  55  53  93 NW5       29.95S FOG              
MCMINNVILLE    LGT RAIN  54  52  93 N7        29.94F                  
SALEM          LGT RAIN  54  53  97 N6        29.94F FOG              
CORVALLIS      LGT RAIN  55  53  93 NW9       29.94F                  
EUGENE         LGT RAIN  57  54  89 N8        29.94S                  
$$

ORZ021-028-200300-
SOUTHWEST OREGON

  
CITY           SKY/WX    TMP DP  RH WIND       PRES   REMARKS
NORTH BEND     CLOUDY    54  51  90 N8        29.99F                  
BROOKINGS      CLOUDY    53  50  89 N8        29.97S                  
ROSEBURG       CLOUDY    61  52  72 W10       29.92S                  
SEXTON SUMMIT  MOCLDY    50  47  89 N8G21     29.92S                  
GRANTS PASS    CLOUDY    66  50  55 N14G21    29.89R                  
MEDFORD        MOCLDY    71  52  50 N18       29.81R                  
$$

ORZ014>016-041-200300-
COLUMBIA GORGE

  
CITY           SKY/WX    TMP DP  RH WIND       PRES   REMARKS
TROUTDALE      LGT RAIN  56  53  90 W7        29.94S                  
HOOD RIVER     CLOUDY    59  48  67 MISG      29.87F                  
THE DALLES     CLOUDY    62  46  55 W18       29.84R                  
$$

ORZ029>031-041-044-049-050-061>064-502-503-505>511-200300-
EASTERN OREGON

  
CITY           SKY/WX    TMP DP  RH WIND       PRES   REMARKS
MADRAS         LGT RAIN  61  50  67 N8        29.86R                  
REDMOND        CLOUDY    64  47  53 NW16      29.83R                  
BEND           CLOUDY    61  48  63 NW12G18   29.84R                  
PRINEVILLE     CLOUDY    61  50  67 NW15G22   29.84R                  
KLAMATH FALLS  MOCLDY    66  44  45 W10       29.83F                  
LAKEVIEW       MOCLDY    66  35  31 SW13      29.87F                  
HERMISTON      LGT RAIN  67  49  52 NW9       29.80R                  
PENDLETON      RAIN      62  56  80 S8        29.81R                  
JOHN DAY       PTCLDY    63  50  61 NW7       29.81S                  
MEACHAM        LGT RAIN  54  50  86 CALM      29.83F                  
LA GRANDE      LGT RAIN  59  52  77 NW7       29.80F                  
BAKER CITY     MOCLDY    59  52  77 NW15      29.79S                  
BURNS          PTCLDY    72  38  29 SW10      29.78F                  
ROME             N/A     74  33  22 SW13      29.79F                  
ONTARIO        CLOUDY    78  47  33 SW10      29.72F                  
$$